Topeka, KS

11:25 PM CST on January 22, 2017 (GMT -0600)
Forbes

Weather History for KFOE - May, 2013

Change the Weather History Date:

Friday, May 10, 2013

  Actual Average Record
Temperature  
Mean Temperature 60 °F -  
Max Temperature 69 °F 75 °F 91 °F (2011)
Min Temperature 50 °F 51 °F 35 °F (1981)
Degree Days  
Heating Degree Days 5    
Growing Degree Days 10 (Base 50)    
Moisture  
Dew Point 50 °F    
Average Humidity 76    
Maximum Humidity 97    
Minimum Humidity 49    
Precipitation  
Precipitation 0.01 in - - ()
Sea Level Pressure  
Sea Level Pressure 30.01 in    
Wind  
Wind Speed 9 mph (NNW)    
Max Wind Speed 15 mph    
Max Gust Speed 23 mph    
Visibility 9 miles    
Events      
Averages and records for this station are not official NWS values.
T = Trace of Precipitation, MM = Missing Value Source: NWS Daily Summary

Daily Weather History Graph

Daily Weather History Graph

Search for Another Location

Airport or City:

Trip Planner

Search our weather history database for the weather conditions in past years. The results will help you decide how hot, cold, wet, or windy it might be!

Date:

Astronomy

May. 10, 2013 Rise Set
Actual Time 6:14 AM CDT 8:24 PM CDT
Civil Twilight 5:44 AM CDT 8:53 PM CDT
Nautical Twilight 5:08 AM CDT 9:30 PM CDT
Astronomical Twilight 4:29 AM CDT 10:09 PM CDT
Moon 6:39 AM CDT (5/10) 9:14 PM CDT (5/10)
Length of Visible Light 15h 08m
Length of Day
14h 09m
New Moon, 0% of the Moon is Illuminated
May 10
New Moon
May 17
First Quarter
May 24
Full
May 31
Last Quarter
Jun 8
New

Hourly Weather History & Observations

Time (CDT) Temp. Dew Point Humidity Pressure Visibility Wind Dir Wind Speed Gust Speed Precip Events Conditions
1:53 AM 55.9 °F 54.0 °F 93% 29.94 in 8.0 mi NW 10.4 mph - N/A   Clear
2:53 AM 57.0 °F 55.0 °F 93% 29.94 in 9.0 mi NNW 8.1 mph - N/A   Mostly Cloudy
3:53 AM 55.9 °F 54.0 °F 93% 29.96 in 8.0 mi NW 5.8 mph - N/A   Mostly Cloudy
4:01 AM 55.4 °F 53.6 °F 94% 29.97 in 8.0 mi NW 6.9 mph - N/A   Mostly Cloudy
4:53 AM 55.9 °F 55.0 °F 97% 29.95 in 7.0 mi NNW 8.1 mph - N/A   Overcast
5:53 AM 54.0 °F 52.0 °F 93% 29.96 in 6.0 mi NW 5.8 mph - N/A   Scattered Clouds
6:37 AM 55.4 °F 53.6 °F 94% 29.98 in 8.0 mi North 9.2 mph - N/A   Mostly Cloudy
6:53 AM 57.0 °F 53.1 °F 87% 29.98 in 9.0 mi North 8.1 mph - N/A   Overcast
7:37 AM 55.4 °F 51.8 °F 88% 30.00 in 10.0 mi North 15.0 mph 21.9 mph N/A   Overcast
8:53 AM 55.0 °F 48.0 °F 77% 30.01 in 10.0 mi North 15.0 mph 23.0 mph 0.01 in   Overcast
9:53 AM 55.9 °F 48.9 °F 77% 30.04 in 10.0 mi North 11.5 mph - N/A   Overcast
10:53 AM 57.0 °F 50.0 °F 77% 30.07 in 10.0 mi North 6.9 mph - N/A   Overcast
12:53 PM 59.0 °F 50.0 °F 72% 30.07 in 10.0 mi NNE 10.4 mph - N/A   Overcast
1:53 PM 61.0 °F 51.1 °F 70% 30.05 in 10.0 mi NNW 12.7 mph - N/A   Overcast
2:32 PM 66.2 °F 53.6 °F 64% 30.05 in 10.0 mi North 9.2 mph - N/A   Mostly Cloudy
2:53 PM 66.9 °F 52.0 °F 59% 30.04 in 10.0 mi North 9.2 mph - N/A   Mostly Cloudy
3:53 PM 64.9 °F 48.9 °F 56% 30.02 in 10.0 mi North 12.7 mph - N/A   Scattered Clouds
4:53 PM 68.0 °F 48.0 °F 49% 30.02 in 10.0 mi NNW 11.5 mph 19.6 mph N/A   Mostly Cloudy
5:53 PM 66.0 °F 48.0 °F 52% 30.02 in 10.0 mi North 8.1 mph - N/A   Scattered Clouds
6:53 PM 66.9 °F 46.9 °F 49% 30.01 in 10.0 mi NNW 11.5 mph - N/A   Mostly Cloudy
7:53 PM 63.0 °F 46.9 °F 56% 30.02 in 10.0 mi NNW 5.8 mph - N/A   Clear
8:53 PM 57.9 °F 46.9 °F 67% 30.03 in 10.0 mi Calm Calm - N/A   Clear
9:53 PM 52.0 °F 46.0 °F 80% - 10.0 mi West 3.5 mph - N/A   Clear
10:53 PM 53.1 °F 46.0 °F 77% - 10.0 mi Calm Calm - N/A   Clear
11:53 PM 50.0 °F 46.0 °F 86% - 10.0 mi WSW 4.6 mph - N/A   Clear